Flag for U.S.A. Weather past 2 weeks in Cincinnati, Ohio, U.S.A.

Now
78 °F

Sunny.


Feels Like: 79 °F
Forecast: 60 / 83 °F
Wind: 7 mph from West

Location: Cincinnati Municipal Airport Lunken Field

Current Time: May 5, 2015 at 12:26:03 PM

Latest Report: May 5, 2015 at 11:53 AM


Visibility: 10 mi

Pressure: 30.25 "Hg

Humidity: 46%

Dew point: 56 °F

Location of CincinnatiLocation

Historic Weather in Cincinnati — Graph

°F

Cincinnati temperature yesterday

Maximum temperature yesterday: 79 °F (at 3:53 PM)
Minimum temperature yesterday: 50 °F (at 3:53 AM)
Average temperature yesterday: 65 °F

Past Weeks' High & Low Weather Summary

 TemperatureHumidityPressure
High79 °F (May 4, 3:53 PM)100% (Apr 22, 7:03 AM)30.27 "Hg (Apr 22, 7:03 AM)
Low30 °F (Apr 24, 5:53 AM)24% (Apr 21, 6:53 PM)29.49 "Hg (Apr 20, 10:53 AM)
Average53 °F66%29.95 "Hg
* Reported Apr 20 10:53 AM — May 5 10:53 AM, Cincinnati, Weather by CustomWeather, © 2015

Note: Actual official high and low records may vary slightly from our data, if they occured in-between our weather recording intervals... More about our weather records

Advertising

Cincinnati weather history for previous 24 hours

 ConditionsComfort  
Time TempWeatherWind HumidityBarometerVisibility
10:53 AM
Tue, May 5
75 °FSunny.No wind62%30.26 "Hg10 mi
9:53 AM70 °FSunny.No wind76%30.27 "Hg10 mi
8:53 AM63 °FFog.No wind97%30.27 "Hg4 mi
7:53 AM58 °FFog.No wind100%30.26 "Hg4 mi
6:53 AM55 °FFog.No wind100%30.24 "Hg3 mi
5:53 AM57 °FFog.No wind100%30.23 "Hg0 mi
4:53 AM57 °FFog.No wind100%30.22 "Hg0 mi
3:53 AM56 °FFog.No wind100%30.21 "Hg0 mi
3:00 AM60 °FFog.No wind100%30.22 "Hg1 mi
1:53 AM62 °FFog.No wind96%30.20 "Hg4 mi
12:53 AM63 °FFog.No wind97%30.19 "Hg6 mi
11:53 PM
Mon, May 4
63 °FMostly cloudy.No wind87%30.19 "Hg9 mi
10:53 PM64 °FOvercast.No wind84%30.19 "Hg10 mi
9:53 PM64 °FPassing clouds.No wind90%30.17 "Hg10 mi
8:53 PM68 °FSunny.No wind82%30.16 "Hg10 mi
7:53 PM73 °FPartly sunny.No wind74%30.16 "Hg10 mi
6:53 PM77 °FScattered clouds.No wind58%30.14 "Hg9 mi
5:53 PM76 °FPassing clouds.3 mph64%30.15 "Hg10 mi
4:53 PM77 °FPassing clouds.8 mph52%30.15 "Hg10 mi
3:53 PM79 °FSunny.10 mph48%30.15 "Hg10 mi
2:53 PM77 °FPassing clouds.12 mph47%30.16 "Hg10 mi
1:53 PM78 °FScattered clouds.18 mph46%30.17 "Hg10 mi
12:53 PM78 °FScattered clouds.15 mph45%30.19 "Hg10 mi
Weather by CustomWeather, © 2015

See weather overviewHow to use our weather pages